Location: Valasske Mezirici
(49.4670°N, 17.9670°E)
Time: 11:27:05
(UTC+02:00)

ISS - Visible Passes

Search period start: 14 May 2021 00:00
Search period end: 24 May 2021 00:00
Orbit: 417 x 422 km, 51.6° (Epoch: 14 May)

Date Brightness Start Highest point End Pass type
(mag) Time Alt. Az. Time Alt. Az. Time Alt. Az.
14 May -3.2 01:18:38 36° WNW 01:19:43 57° N 01:23:03 10° ENE visible
14 May -3.8 02:53:18 10° WNW 02:56:42 88° NNE 03:00:05 10° ESE visible
14 May -1.9 21:17:38 10° SSE 21:19:08 12° SE 21:20:37 10° ESE visible
14 May -3.8 22:52:03 10° SW 22:55:22 56° SSE 22:58:41 10° ENE visible
15 May -3.3 00:28:52 10° W 00:32:13 60° N 00:35:34 10° ENE visible
15 May -3.6 02:05:51 10° WNW 02:09:14 72° NNE 02:12:37 10° E visible
15 May -3.2 03:42:48 10° W 03:45:55 35° SSW 03:49:02 10° SE visible
15 May -3.3 22:04:50 10° SW 22:07:59 39° SSE 22:11:10 10° E visible
15 May -3.5 23:41:21 10° W 23:44:43 68° NNW 23:48:05 10° ENE visible
16 May -3.3 01:18:23 10° WNW 01:21:45 62° N 01:25:06 10° E visible
16 May -3.6 02:55:16 10° WNW 02:58:34 50° SSW 03:01:50 10° SE visible
16 May -2.8 21:17:45 10° SSW 21:20:39 27° SE 21:23:34 10° E visible
16 May -3.8 22:53:52 10° WSW 22:57:14 82° NNW 23:00:37 10° ENE visible
17 May -3.2 00:30:54 10° WNW 00:34:14 57° N 00:37:34 10° E visible
17 May -3.9 02:07:47 10° WNW 02:11:09 70° SSW 02:14:31 10° ESE visible
17 May -2.2 03:45:18 10° W 03:47:31 17° SW 03:49:44 10° S visible
17 May -3.9 22:06:26 10° WSW 22:09:47 78° SSE 22:13:09 10° ENE visible
17 May -3.1 23:43:23 10° W 23:46:43 57° N 23:50:00 10° ENE visible
18 May -3.2 01:20:19 10° WNW 01:22:53 49° WNW 01:22:53 49° WNW visible
18 May -3.7 21:19:03 10° SW 21:22:21 57° SSE 21:25:40 10° ENE visible
18 May -3.2 22:55:51 10° W 22:59:12 60° N 23:02:33 10° ENE visible
19 May -3.6 00:32:51 10° WNW 00:36:14 72° NNE 00:36:28 68° NE visible
19 May -3.4 22:08:20 10° W 22:11:41 68° NNW 22:15:04 10° ENE visible
19 May -3.3 23:45:22 10° WNW 23:48:43 62° N 23:50:17 28° E visible
20 May -1.6 01:22:15 10° WNW 01:23:12 17° W 01:23:12 17° W visible
20 May -3.7 21:20:50 10° WSW 21:24:12 82° NNW 21:27:34 10° ENE visible
20 May -3.2 22:57:52 10° WNW 23:01:12 57° N 23:04:11 12° E visible
21 May -2.9 00:34:44 10° WNW 00:37:06 41° W 00:37:06 41° W visible
21 May -3.1 22:10:20 10° W 22:13:40 57° N 22:17:00 10° ENE visible
21 May -3.9 23:47:16 10° WNW 23:50:39 89° NNE 23:51:04 67° ESE visible
22 May -3.2 21:22:48 10° W 21:26:08 60° N 21:29:29 10° ENE visible
22 May -3.6 22:59:47 10° WNW 23:03:09 73° NNE 23:05:03 24° E visible
23 May -1.8 00:36:43 10° W 00:37:59 19° W 00:37:59 19° W visible
23 May -3.3 22:12:17 10° WNW 22:15:38 62° N 22:18:59 10° E visible
23 May -3.3 23:49:10 10° WNW 23:51:59 45° WSW 23:51:59 45° WSW visible
